Карточка аэропорта UNEE

Внимание!
Информация на этой странице в стадии наполнения.
Если вы не увидели какой-то информации, или заметили неточность - пожалуйста сообщите нам!
Спасибо!
Команда RU-STAFF
Название аэропортаКемерово
Название аэропорта (англ.)Kemerovo
Превышение873 ft. (266.1 m.)
Координаты55°16.2', 86°6.6'
Высота перехода500m
Эшелон переходаQFE>=760mm:FL030; QFE<=759=>733mm:FL040; QFE<=732mm:FL050
Коды ответчика5260-5267
Зона ОрВДНовосибирск РПИ (UNNT)
Данные METARUNEE 192330Z 19003MPS 9999 OVC016 18/18 Q0999 R23/CLRD60 NOSIG RMK QFE727
Проноз погоды (TAF)UNEE 192300Z 2000/2024 22003G08MPS 8000 BKN040CB TX26/2009Z TN18/2021Z TEMPO 2000/2009 27006G13MPS BKN011CB PROB40 TEMPO 2000/2009 -TSRA BECMG 2012/2015 15003G08MPS
NOTAMshow/hide NOTAM
AWOS   TABLE

Информация о ВПП

ВПП Длина ВПП (м.) Покрытие Курс ВПП Частота ILS
053200Цементобетон46 
233200Цементобетон226109.1

Диспетчерские позиции

Позывной Наименование органа УВД Частота
UNEE_TWRКемерово-Старт118.3
UNEE_APPКемерово-Подход125.5



Спутниковое изображение